| time (UTC) | temp C | wind direction | speed KPH | gust KPH | rain 1hr cm | rain 24hr cm | rain mn cm | humidity % | barometer mb |
| 20260902191053 | 23 | 158 | 16.1 | 20.9 | 0.00 | 0.00 | 0.00 | 39 | 1007.4 |
| 20260902190053 | 23 | 235 | 8.0 | 20.9 | 0.00 | 0.00 | 0.00 | 39 | 1007.5 |
| 20260902185115 | 23 | 157 | 14.5 | 25.7 | 0.00 | 0.00 | 0.00 | 40 | 1007.5 |
| 20260902184114 | 23 | 145 | 16.1 | 22.5 | 0.00 | 0.00 | 0.00 | 42 | 1007.6 |
| 20260902183053 | 23 | 170 | 16.1 | 19.3 | 0.00 | 0.00 | 0.00 | 42 | 1007.7 |
| 20260902182054 | 23 | 175 | 17.7 | 27.4 | 0.00 | 0.00 | 0.00 | 42 | 1007.8 |
| 20260902181054 | 22 | 164 | 16.1 | 22.5 | 0.00 | 0.00 | 0.00 | 42 | 1007.9 |
| 20260902180054 | 22 | 166 | 16.1 | 27.4 | 0.00 | 0.00 | 0.00 | 44 | 1007.9 |
| 20260902175054 | 22 | 160 | 17.7 | 22.5 | 0.00 | 0.00 | 0.00 | 44 | 1008.0 |
| 20260902174054 | 22 | 152 | 19.3 | 25.7 | 0.00 | 0.00 | 0.00 | 46 | 1008.0 |
| 20260902173054 | 22 | 164 | 16.1 | 20.9 | 0.00 | 0.00 | 0.00 | 44 | 1007.9 |
| 20260902172054 | 22 | 164 | 11.3 | 17.7 | 0.00 | 0.00 | 0.00 | 44 | 1008.0 |
| 20260902171054 | 23 | 171 | 16.1 | 24.1 | 0.00 | 0.00 | 0.00 | 45 | 1008.1 |
| 20260902170116 | 22 | 156 | 8.0 | 14.5 | 0.00 | 0.00 | 0.00 | 44 | 1008.2 |
| 20260902165116 | 22 | 29 | 3.2 | 4.8 | 0.00 | 0.00 | 0.00 | 44 | 1008.2 |
| 20260902164056 | 22 | 23 | 6.4 | 9.7 | 0.00 | 0.00 | 0.00 | 45 | 1008.2 |
| 20260902163055 | 21 | 5 | 4.8 | 8.0 | 0.00 | 0.00 | 0.00 | 46 | 1008.2 |
| 20260902162055 | 21 | 319 | 6.4 | 9.7 | 0.00 | 0.00 | 0.00 | 47 | 1008.1 |
| 20260902161055 | 20 | 9 | 3.2 | 6.4 | 0.00 | 0.00 | 0.00 | 52 | 1008.3 |
| 20260902160055 | 18 | 45 | 3.2 | 4.8 | 0.00 | 0.00 | 0.00 | 58 | 1008.5 |
| 20260902155055 | 17 | 0.0 | 0.0 | 0.00 | 0.00 | 0.00 | 67 | 1008.5 | |
| 20260902154055 | 17 | 0.0 | 0.0 | 0.00 | 0.00 | 0.00 | 70 | 1008.5 | |
| 20260902153055 | 16 | 0.0 | 0.0 | 0.00 | 0.00 | 0.00 | 71 | 1008.6 | |
| 20260902152117 | 16 | 104 | 3.2 | 4.8 | 0.00 | 0.00 | 0.00 | 72 | 1008.6 |
| 20260902151117 | 16 | 0.0 | 0.0 | 0.00 | 0.00 | 0.00 | 74 | 1008.7 | |
| 20260902150056 | 16 | 121 | 3.2 | 4.8 | 0.00 | 0.00 | 0.00 | 76 | 1008.6 |
| 20260902145056 | 15 | 46 | 1.6 | 4.8 | 0.00 | 0.00 | 0.00 | 80 | 1008.7 |
| 20260902144056 | 14 | 100 | 0.0 | 3.2 | 0.00 | 0.00 | 0.00 | 84 | 1008.7 |
| 20260902143116 | 13 | 101 | 3.2 | 3.2 | 0.00 | 0.00 | 0.00 | 86 | 1008.6 |
| 20260902142058 | 12 | 113 | 1.6 | 3.2 | 0.00 | 0.00 | 0.00 | 87 | 1008.8 |
| 20260902141118 | 11 | 23 | 0.0 | 4.8 | 0.00 | 0.00 | 0.00 | 85 | 1008.6 |
| 20260902140158 | 11 | 187 | 1.6 | 3.2 | 0.00 | 0.00 | 0.00 | 84 | 1008.6 |
| 20260902135057 | 11 | 0.0 | 1.6 | 0.00 | 0.00 | 0.00 | 84 | 1008.6 | |
| 20260902134558 | 11 | 64 | 1.6 | 3.2 | 0.00 | 0.00 | 0.00 | 83 | 1008.4 |
| 20260902133618 | 11 | 248 | 0.0 | 1.6 | 0.00 | 0.00 | 0.00 | 83 | 1008.3 |
| 20260902132557 | 11 | 186 | 1.6 | 4.8 | 0.00 | 0.00 | 0.00 | 82 | 1008.3 |
| 20260902131559 | 11 | 338 | 1.6 | 3.2 | 0.00 | 0.00 | 0.00 | 82 | 1008.4 |
| 20260902130623 | 11 | 278 | 0.0 | 3.2 | 0.00 | 0.00 | 0.00 | 80 | 1008.6 |
| 20260902125557 | 11 | 160 | 1.6 | 3.2 | 0.00 | 0.00 | 0.00 | 80 | 1008.4 |
| 20260902124619 | 11 | 210 | 1.6 | 4.8 | 0.00 | 0.00 | 0.00 | 79 | 1008.5 |
| 20260902123557 | 11 | 0.0 | 0.0 | 0.00 | 0.00 | 0.00 | 78 | 1008.5 | |
| 20260902122559 | 12 | 186 | 0.0 | 3.2 | 0.00 | 0.00 | 0.00 | 77 | 1008.6 |
| 20260902121559 | 12 | 0.0 | 0.0 | 0.00 | 0.00 | 0.00 | 76 | 1008.4 | |
| 20260902120559 | 12 | 0.0 | 0.0 | 0.00 | 0.00 | 0.00 | 76 | 1008.5 | |
| 20260902115600 | 12 | 234 | 1.6 | 3.2 | 0.00 | 0.00 | 0.00 | 75 | 1008.4 |
| 20260902114640 | 12 | 266 | 0.0 | 4.8 | 0.00 | 0.00 | 0.00 | 75 | 1008.4 |
| 20260902113558 | 12 | 225 | 0.0 | 3.2 | 0.00 | 0.00 | 0.00 | 73 | 1008.3 |
| 20260902112558 | 12 | 0.0 | 0.0 | 0.00 | 0.00 | 0.00 | 72 | 1008.3 | |
| 20260902111600 | 12 | 236 | 1.6 | 4.8 | 0.00 | 0.00 | 0.00 | 72 | 1008.2 |
| 20260902110600 | 12 | 126 | 4.8 | 6.4 | 0.00 | 0.00 | 0.00 | 73 | 1008.2 |
| 20260902105558 | 13 | 111 | 1.6 | 4.8 | 0.00 | 0.00 | 0.00 | 72 | 1008.1 |
| 20260902104559 | 13 | 338 | 0.0 | 3.2 | 0.00 | 0.00 | 0.00 | 70 | 1008.0 |
| 20260902103559 | 13 | 0.0 | 0.0 | 0.00 | 0.00 | 0.00 | 67 | 1007.7 | |
| 20260902102559 | 14 | 55 | 0.0 | 1.6 | 0.00 | 0.00 | 0.00 | 64 | 1007.6 |
| 20260902101559 | 15 | 113 | 0.0 | 3.2 | 0.00 | 0.00 | 0.00 | 62 | 1007.6 |
| 20260902100559 | 15 | 0.0 | 0.0 | 0.00 | 0.00 | 0.00 | 59 | 1007.6 | |
| 20260902095601 | 16 | 234 | 0.0 | 3.2 | 0.00 | 0.00 | 0.00 | 55 | 1007.6 |
| 20260902094601 | 17 | 251 | 1.6 | 3.2 | 0.00 | 0.00 | 0.00 | 53 | 1007.6 |
| 20260902093601 | 17 | 265 | 4.8 | 4.8 | 0.00 | 0.00 | 0.00 | 51 | 1007.7 |
| 20260902092601 | 18 | 279 | 3.2 | 4.8 | 0.00 | 0.00 | 0.00 | 49 | 1007.6 |
| 20260902091600 | 17 | 1 | 3.2 | 4.8 | 0.00 | 0.00 | 0.00 | 50 | 1007.4 |
| 20260902090601 | 17 | 232 | 6.4 | 9.7 | 0.00 | 0.00 | 0.00 | 51 | 1007.5 |
| 20260902085600 | 16 | 253 | 6.4 | 12.9 | 0.00 | 0.00 | 0.00 | 54 | 1007.5 |
| 20260902084622 | 16 | 222 | 1.6 | 6.4 | 0.00 | 0.00 | 0.00 | 56 | 1007.6 |
| 20260902083621 | 16 | 0.0 | 0.0 | 0.00 | 0.00 | 0.00 | 54 | 1007.6 | |
| 20260902082600 | 17 | 203 | 3.2 | 4.8 | 0.00 | 0.00 | 0.00 | 53 | 1007.6 |
| 20260902081602 | 17 | 217 | 4.8 | 6.4 | 0.00 | 0.00 | 0.00 | 53 | 1007.5 |
| 20260902080642 | 17 | 257 | 4.8 | 6.4 | 0.00 | 0.00 | 0.00 | 53 | 1007.6 |
| 20260902075601 | 18 | 237 | 4.8 | 6.4 | 0.00 | 0.00 | 0.00 | 51 | 1007.5 |
| 20260902074600 | 18 | 234 | 6.4 | 9.7 | 0.00 | 0.00 | 0.00 | 50 | 1007.7 |
| 20260902073601 | 18 | 251 | 6.4 | 9.7 | 0.00 | 0.00 | 0.00 | 50 | 1007.7 |
| 20260902072601 | 19 | 253 | 6.4 | 11.3 | 0.00 | 0.00 | 0.00 | 49 | 1007.7 |
| 20260902071601 | 19 | 235 | 9.7 | 14.5 | 0.00 | 0.00 | 0.00 | 47 | 1007.7 |
| 20260902070603 | 19 | 275 | 11.3 | 17.7 | 0.00 | 0.00 | 0.00 | 46 | 1007.8 |
| 20260902065643 | 19 | 244 | 11.3 | 17.7 | 0.00 | 0.00 | 0.00 | 45 | 1007.7 |
| 20260902064622 | 19 | 230 | 8.0 | 12.9 | 0.00 | 0.00 | 0.00 | 46 | 1007.5 |
| 20260902063603 | 19 | 245 | 6.4 | 11.3 | 0.00 | 0.00 | 0.00 | 46 | 1007.4 |
| 20260902062601 | 19 | 253 | 6.4 | 9.7 | 0.00 | 0.00 | 0.00 | 48 | 1007.2 |
| 20260902061602 | 20 | 269 | 6.4 | 8.0 | 0.00 | 0.00 | 0.00 | 47 | 1007.1 |
| 20260902060603 | 20 | 247 | 8.0 | 11.3 | 0.00 | 0.00 | 0.00 | 47 | 1007.0 |
| 20260902055602 | 20 | 249 | 6.4 | 9.7 | 0.00 | 0.00 | 0.00 | 47 | 1006.9 |
| 20260902054604 | 20 | 282 | 6.4 | 9.7 | 0.00 | 0.00 | 0.00 | 47 | 1007.0 |
| 20260902053604 | 20 | 211 | 6.4 | 8.0 | 0.00 | 0.00 | 0.00 | 47 | 1006.8 |
| 20260902052622 | 20 | 0.0 | 0.0 | 0.00 | 0.00 | 0.00 | 48 | 1006.8 | |
| 20260902051604 | 20 | 256 | 4.8 | 9.7 | 0.00 | 0.00 | 0.00 | 47 | 1006.6 |
| 20260902050603 | 20 | 255 | 4.8 | 8.0 | 0.00 | 0.00 | 0.00 | 47 | 1006.4 |
| 20260902045603 | 20 | 234 | 1.6 | 6.4 | 0.00 | 0.00 | 0.00 | 46 | 1006.3 |
| 20260902044623 | 20 | 220 | 3.2 | 6.4 | 0.00 | 0.00 | 0.00 | 46 | 1006.2 |
| 20260902043604 | 21 | 0.0 | 0.0 | 0.00 | 0.00 | 0.00 | 45 | 1006.1 | |
| 20260902042623 | 21 | 264 | 3.2 | 8.0 | 0.00 | 0.00 | 0.00 | 42 | 1006.1 |
| 20260902041605 | 20 | 232 | 6.4 | 8.0 | 0.00 | 0.00 | 0.00 | 41 | 1005.8 |
| 20260902040605 | 21 | 224 | 4.8 | 8.0 | 0.00 | 0.00 | 0.00 | 42 | 1005.7 |
| 20260902035604 | 21 | 227 | 4.8 | 8.0 | 0.00 | 0.00 | 0.00 | 40 | 1005.6 |
| 20260902034625 | 20 | 217 | 3.2 | 4.8 | 0.00 | 0.00 | 0.00 | 39 | 1005.3 |
| 20260902033604 | 20 | 213 | 4.8 | 8.0 | 0.00 | 0.00 | 0.00 | 41 | 1005.2 |
| 20260902032646 | 21 | 264 | 3.2 | 3.2 | 0.00 | 0.00 | 0.00 | 41 | 1004.9 |
| 20260902031604 | 21 | 270 | 0.0 | 3.2 | 0.00 | 0.00 | 0.00 | 39 | 1004.7 |
| 20260902030646 | 22 | 228 | 1.6 | 3.2 | 0.00 | 0.00 | 0.00 | 38 | 1004.7 |
| 20260902025604 | 23 | 244 | 1.6 | 4.8 | 0.00 | 0.00 | 0.00 | 37 | 1004.5 |
| 20260902024604 | 23 | 257 | 3.2 | 4.8 | 0.00 | 0.00 | 0.00 | 37 | 1004.4 |
| 20260902023606 | 24 | 267 | 3.2 | 9.7 | 0.00 | 0.00 | 0.00 | 36 | 1004.3 |
| 20260902022605 | 25 | 241 | 4.8 | 8.0 | 0.00 | 0.00 | 0.00 | 37 | 1004.2 |
| 20260902021604 | 25 | 255 | 3.2 | 8.0 | 0.00 | 0.00 | 0.00 | 37 | 1004.1 |
| 20260902020606 | 26 | 263 | 4.8 | 8.0 | 0.00 | 0.00 | 0.00 | 36 | 1004.1 |
| 20260902015605 | 26 | 256 | 6.4 | 9.7 | 0.00 | 0.00 | 0.00 | 36 | 1004.1 |
| 20260902014605 | 27 | 276 | 9.7 | 14.5 | 0.00 | 0.00 | 0.00 | 36 | 1004.0 |
| 20260902013625 | 27 | 279 | 8.0 | 11.3 | 0.00 | 0.00 | 0.00 | 38 | 1004.1 |
| 20260902012605 | 28 | 281 | 6.4 | 8.0 | 0.00 | 0.00 | 0.00 | 36 | 1003.8 |
| 20260902011626 | 28 | 231 | 3.2 | 4.8 | 0.00 | 0.00 | 0.00 | 35 | 1003.6 |
| 20260902010627 | 29 | 267 | 4.8 | 6.4 | 0.00 | 0.00 | 0.00 | 33 | 1003.6 |
| 20260902005605 | 30 | 271 | 6.4 | 8.0 | 0.00 | 0.00 | 0.00 | 32 | 1003.6 |
| 20260902004606 | 30 | 254 | 4.8 | 6.4 | 0.00 | 0.00 | 0.00 | 31 | 1003.5 |
| 20260902003607 | 30 | 244 | 11.3 | 16.1 | 0.00 | 0.00 | 0.00 | 26 | 1003.4 |
| 20260902002626 | 31 | 206 | 8.0 | 11.3 | 0.00 | 0.00 | 0.00 | 25 | 1003.5 |
| 20260902001626 | 31 | 211 | 9.7 | 14.5 | 0.00 | 0.00 | 0.00 | 24 | 1003.5 |
| 20260902000627 | 32 | 159 | 11.3 | 14.5 | 0.00 | 0.00 | 0.00 | 23 | 1003.5 |
| 20260901235608 | 32 | 164 | 16.1 | 20.9 | 0.00 | 0.00 | 0.00 | 23 | 1003.6 |
| 20260901234606 | 32 | 143 | 14.5 | 20.9 | 0.00 | 0.00 | 0.00 | 24 | 1003.7 |
| 20260901233608 | 32 | 169 | 12.9 | 17.7 | 0.00 | 0.00 | 0.00 | 24 | 1003.8 |
| 20260901232607 | 32 | 159 | 11.3 | 16.1 | 0.00 | 0.00 | 0.00 | 25 | 1003.8 |
| 20260901231606 | 32 | 147 | 14.5 | 19.3 | 0.00 | 0.00 | 0.00 | 27 | 1003.9 |
| 20260901230649 | 31 | 163 | 12.9 | 20.9 | 0.00 | 0.00 | 0.00 | 27 | 1004.0 |
| 20260901225607 | 32 | 135 | 12.9 | 16.1 | 0.00 | 0.00 | 0.00 | 29 | 1004.1 |
| 20260901224607 | 32 | 162 | 16.1 | 25.7 | 0.00 | 0.00 | 0.00 | 29 | 1004.2 |
| 20260901223607 | 31 | 162 | 14.5 | 20.9 | 0.00 | 0.00 | 0.00 | 29 | 1004.3 |
| 20260901222607 | 31 | 128 | 16.1 | 20.9 | 0.00 | 0.00 | 0.00 | 30 | 1004.5 |
| 20260901221607 | 31 | 140 | 14.5 | 24.1 | 0.00 | 0.00 | 0.00 | 32 | 1004.6 |
| 20260901220608 | 31 | 168 | 14.5 | 19.3 | 0.00 | 0.00 | 0.00 | 33 | 1004.7 |
| 20260901215609 | 31 | 164 | 14.5 | 20.9 | 0.00 | 0.00 | 0.00 | 33 | 1004.9 |
| 20260901214608 | 31 | 171 | 14.5 | 20.9 | 0.00 | 0.00 | 0.00 | 32 | 1005.0 |
| 20260901213608 | 31 | 131 | 14.5 | 19.3 | 0.00 | 0.00 | 0.00 | 31 | 1005.2 |
| 20260901212608 | 30 | 168 | 11.3 | 14.5 | 0.00 | 0.00 | 0.00 | 32 | 1005.3 |
| 20260901211609 | 30 | 145 | 14.5 | 19.3 | 0.00 | 0.00 | 0.00 | 34 | 1005.4 |
| 20260901210628 | 30 | 137 | 16.1 | 19.3 | 0.00 | 0.00 | 0.00 | 34 | 1005.5 |
| 20260901205650 | 29 | 134 | 16.1 | 20.9 | 0.00 | 0.00 | 0.00 | 35 | 1005.6 |
| 20260901204609 | 28 | 157 | 14.5 | 19.3 | 0.00 | 0.00 | 0.00 | 36 | 1005.8 |
| 20260901203608 | 28 | 131 | 11.3 | 14.5 | 0.00 | 0.00 | 0.00 | 37 | 1005.9 |
| 20260901202609 | 27 | 153 | 14.5 | 20.9 | 0.00 | 0.00 | 0.00 | 36 | 1006.0 |
| 20260901201609 | 27 | 139 | 16.1 | 20.9 | 0.00 | 0.00 | 0.00 | 36 | 1006.2 |
| 20260901200609 | 28 | 155 | 8.0 | 12.9 | 0.00 | 0.00 | 0.00 | 33 | 1006.2 |
| 20260901195609 | 27 | 290 | 8.0 | 12.9 | 0.00 | 0.00 | 0.00 | 33 | 1006.2 |
| 20260901194610 | 26 | 337 | 6.4 | 11.3 | 0.00 | 0.00 | 0.00 | 37 | 1006.4 |
| 20260901193609 | 26 | 6 | 8.0 | 11.3 | 0.00 | 0.00 | 0.00 | 39 | 1006.5 |
| 20260901192610 | 25 | 13 | 4.8 | 8.0 | 0.00 | 0.00 | 0.00 | 39 | 1006.6 |